EW1336 Weather Reports


Display with metric or nautical units.
time (UTC)temp
F
wind
direction
speed
MPH
gust
MPH
rain 1hr
in
rain 24hr
in
rain mn
in
humidity
%
barometer
mb
20260903104547 44 269 0.0 1.0 0.00 0.00 0.00 64 1011.9
20260903103032 44 263 0.0 1.0 0.00 0.00 0.00 65 1012.0
20260903101537 44 276 0.0 1.0 0.00 0.00 0.00 66 1012.0
20260903100040 44 225 0.0 5.0 0.00 0.00 0.00 66 1011.9
20260903094529 44 218 0.0 2.0 0.00 0.00 0.00 66 1012.0
20260903093032 44 280 0.0 2.0 0.00 0.00 0.00 68 1012.1
20260903091525 44 276 0.0 2.0 0.00 0.00 0.00 69 1012.4
20260903090025 44 263 0.0 2.0 0.00 0.00 0.00 70 1012.4
20260903084522 44 225 0.0 2.0 0.00 0.00 0.00 71 1012.4
20260903083020 44 270 0.0 4.0 0.00 0.00 0.00 71 1012.6
20260903081522 44 203 0.0 3.0 0.00 0.00 0.00 72 1012.6
20260903080016 44 277 0.0 2.0 0.00 0.00 0.00 71 1012.7
20260903074512 43 263 0.0 2.0 0.00 0.00 0.00 72 1012.8
20260903073018 44 271 0.0 4.0 0.00 0.00 0.00 71 1012.7
20260903071505 44 238 0.0 2.0 0.00 0.00 0.00 70 1012.7
20260903070100 44 278 0.0 2.0 0.00 0.00 0.00 70 1012.6
20260903064559 44 277 0.0 4.0 0.00 0.00 0.00 67 1012.7
20260903063058 44 278 0.0 1.0 0.00 0.00 0.00 65 1012.6
20260903061602 44 271 0.0 4.0 0.00 0.00 0.00 63 1012.8
20260903060120 44 269 0.0 2.0 0.00 0.00 0.00 61 1012.8
20260903054557 45 271 0.0 4.0 0.00 0.00 0.00 61 1012.9
20260903053101 44 277 0.0 4.0 0.00 0.00 0.00 61 1013.1
20260903051605 45 240 0.0 3.0 0.00 0.00 0.00 63 1013.2
20260903050056 44 298 0.0 2.0 0.00 0.00 0.00 67 1013.4
20260903044557 44 278 0.0 2.0 0.00 0.00 0.00 68 1013.3
20260903043101 44 68 0.0 3.0 0.00 0.00 0.00 69 1013.2
20260903041557 44 253 0.0 3.0 0.00 0.00 0.00 71 1013.3
20260903040051 44 269 0.0 1.0 0.00 0.00 0.00 72 1013.1
20260903034553 44 243 0.0 1.0 0.00 0.00 0.00 71 1012.9
20260903033048 44 270 0.0 3.0 0.00 0.00 0.00 70 1012.7
20260903031547 45 264 0.0 2.0 0.00 0.00 0.00 69 1012.5
20260903030051 45 264 0.0 4.0 0.00 0.00 0.00 68 1012.4
20260903024546 45 288 0.0 2.0 0.00 0.00 0.00 68 1012.4
20260903023046 46 274 0.0 2.0 0.00 0.00 0.00 66 1012.2
20260903021548 46 295 0.0 1.0 0.00 0.00 0.00 65 1012.2
20260903020042 47 267 0.0 3.0 0.00 0.00 0.00 64 1012.0
20260903014551 47 283 0.0 2.0 0.00 0.00 0.00 64 1011.9
20260903013041 48 264 0.0 3.0 0.00 0.00 0.00 62 1011.9
20260903011600 48 277 0.0 4.0 0.00 0.00 0.00 59 1012.0
20260903010043 49 232 0.0 5.0 0.00 0.00 0.00 58 1012.0
20260903004539 50 273 0.0 3.0 0.00 0.00 0.00 57 1011.9
20260903003041 52 264 0.0 5.0 0.00 0.00 0.00 51 1011.9
20260903001539 52 293 1.0 6.0 0.00 0.00 0.00 51 1012.0
20260903000049 53 343 0.0 3.0 0.00 0.00 0.00 51 1012.0
20260902234541 53 273 0.0 3.0 0.00 0.00 0.00 50 1011.8
20260902233048 54 264 0.0 4.0 0.00 0.00 0.00 47 1011.8
20260902231538 52 231 0.0 3.0 0.00 0.00 0.00 51 1011.6
20260902230038 52 276 1.0 6.0 0.00 0.00 0.00 50 1011.6
20260902224534 53 278 0.0 3.0 0.00 0.00 0.00 47 1011.6
20260902223034 55 269 0.0 6.0 0.00 0.00 0.00 46 1011.5
20260902221533 56 252 0.0 5.0 0.00 0.00 0.00 43 1011.4
20260902220042 55 274 0.0 4.0 0.00 0.00 0.00 43 1011.7
20260902214550 55 231 1.0 6.0 0.00 0.00 0.00 45 1011.8
20260902213029 55 269 0.0 5.0 0.00 0.00 0.00 47 1011.7
20260902211529 55 347 1.0 5.0 0.00 0.00 0.00 44 1011.9
20260902210031 56 239 1.0 7.0 0.00 0.00 0.00 48 1011.9
20260902204526 55 270 1.0 4.0 0.00 0.00 0.00 48 1011.8
20260902203026 55 210 1.0 6.0 0.00 0.00 0.00 50 1011.7
20260902201533 55 284 1.0 5.0 0.00 0.00 0.00 49 1011.7
20260902200016 53 239 0.0 5.0 0.00 0.00 0.00 53 1011.8
20260902194514 52 290 1.0 5.0 0.00 0.00 0.00 54 1011.9
20260902193013 52 273 1.0 7.0 0.00 0.00 0.00 54 1011.7
20260902191520 52 287 0.0 5.0 0.00 0.00 0.00 56 1011.8
20260902190012 50 262 1.0 9.0 0.00 0.00 0.00 58 1011.7
20260902184514 50 250 0.0 5.0 0.00 0.00 0.00 59 1011.6
20260902183014 50 281 1.0 7.0 0.00 0.00 0.00 58 1011.7
20260902181507 50 249 0.0 3.0 0.00 0.00 0.00 62 1011.7
20260902180005 48 276 0.0 3.0 0.00 0.00 0.00 63 1011.5
20260902174602 47 270 0.0 6.0 0.00 0.00 0.00 65 1011.5
20260902173126 46 269 0.0 3.0 0.00 0.00 0.00 68 1011.3
20260902171605 45 278 0.0 3.0 0.00 0.00 0.00 68 1011.3
20260902170057 45 274 0.0 5.0 0.00 0.00 0.00 69 1011.2
20260902164555 44 266 0.0 5.0 0.00 0.00 0.00 69 1011.1
20260902163045 44 250 0.0 3.0 0.00 0.00 0.00 72 1010.9
20260902161543 43 278 0.0 3.0 0.00 0.00 0.00 73 1010.8
20260902160055 43 323 0.0 5.0 0.00 0.00 0.00 74 1010.9
20260902154544 42 279 0.0 3.0 0.00 0.00 0.00 73 1010.9
20260902153042 42 281 0.0 1.0 0.00 0.00 0.00 75 1011.0
20260902151536 41 277 0.0 3.0 0.00 0.00 0.00 75 1011.1
20260902150034 41 49 0.0 2.0 0.00 0.00 0.00 76 1010.8
20260902144531 41 263 0.0 1.0 0.00 0.00 0.00 76 1010.7
20260902143032 41 232 0.0 3.0 0.00 0.00 0.00 75 1010.4
20260902141528 40 277 0.0 1.0 0.00 0.00 0.00 75 1010.1
20260902140025 40 228 0.0 2.0 0.00 0.00 0.00 75 1009.8
20260902134525 40 260 0.0 2.0 0.00 0.00 0.00 73 1009.7
20260902133023 40 274 0.0 2.0 0.00 0.00 0.00 72 1009.7
20260902131521 40 207 0.0 4.0 0.00 0.00 0.00 72 1009.5
20260902130018 40 231 0.0 3.0 0.00 0.00 0.00 72 1009.1
20260902124521 40 265 0.0 2.0 0.00 0.00 0.00 72 1009.0
20260902123016 40 260 0.0 1.0 0.00 0.00 0.00 71 1009.1
20260902121514 40 264 0.0 2.0 0.00 0.00 0.00 70 1009.1
20260902120020 40 266 0.0 1.0 0.00 0.00 0.00 69 1009.1
20260902114512 40 210 0.0 2.0 0.00 0.00 0.00 68 1009.1
20260902113011 40 266 0.0 1.0 0.00 0.00 0.00 69 1009.2
20260902111510 40 200 0.0 1.0 0.00 0.00 0.00 68 1009.1
20260902110008 41 225 0.0 1.0 0.00 0.00 0.00 68 1008.6